logo
App data

Ways of History

Hardcore real-time strategy with a long-term round. Development of your civilization from caves to space. Huge world. Thousands of players. 240+ sciences and technologies. About 100 troops. 4 races. 50+ resource deposits. War, trade, science, construction...
Store | Hub | SteamDB
Developer: Glyph Worlds Publisher: Glyph Worlds
Genre: Free to Play, Indie, Massively Multiplayer, Strategy
Languages: English, German, Russian
Tags: Free to Play (49), Strategy (47), Massively Multiplayer (37), Indie (29), Early Access (9), Multiplayer (8)
Category: Multi-player, Online Multi-Player, MMO, Co-op, Online Co-op, Cross-Platform Multiplayer, Steam Trading Cards, In-App Purchases, Steam Cloud
Release date: Sep 1, 2017 (previously in Early Access)
Free
Score rank: 9% Userscore: 48% Old userscore: 48%
Owners: 50,000 .. 100,000
Peak concurrent players yesterday: 36
Playtime total: 01:52 (average) 00:32 (median)

Steam Spy is still in beta, so expect major bugs.

Owners data:

Access restricted.

This feature is only available to users with special access rights. Sorry.

If you want to proceed, you need to register or log in first and then back Steam Spy on Patreon. Look for Indie or Pro pledge.

Don't forget to use the same email as on Steam Spy!

Audience in 2 weeks:

Access restricted.

This feature is only available to users with special access rights. Sorry.

If you want to proceed, you need to register or log in first and then back Steam Spy on Patreon. Look for Indie or Pro pledge.

Don't forget to use the same email as on Steam Spy!

Peak daily concurrent players:

CCU data courtesy of SteamDB. Used with permission.

Hourly concurrent players:

YouTube:

The views data is based on top 50 videos uploaded last week. Actual number of views might be more than the number shown.

The displayed number of videos uploaded yesterday is limited to 50, so if there were more videos uploaded, the number will still show 50.

If the game has commonly used word as its name (like "FEAR" or "Volume") its number of Youtube views might be wrong.

Games similar to this one:

# Game Release date
Price
Score rank
(Userscore / Metascore)
Owners
Players
Playtime (Median)
1 Z-Exemplar Nov 25, 2016 $1.99N/A (N/A)0 .. 20,0000%00:00 (00:00)
2 Pocket Kingdom Dec 8, 2016 $6.99N/A (N/A)0 .. 20,0000%00:00 (00:00)
3 The Sea Will Claim Everything Mar 24, 2016 $9.9997% (97%)0 .. 20,0000%00:00 (00:00)
4 In the Raven Shadow – Ve stínu havrana Jul 11, 2017 $1.99N/A (N/A)0 .. 20,0000%00:00 (00:00)
5 Cosmic Sugar VR Nov 30, 2016 Free93% (95%)50,000 .. 100,0000%00:00 (00:00)
6 OLDTV Jul 15, 2017 Free93% (95%)200,000 .. 500,0000.68%14:48 (14:46)
7 Ballads of Reemus: When the Bed Bites Jan 27, 2012 $4.99N/A (N/A)0 .. 20,0000%00:00 (00:00)
8 Dragon Age: Origins Awakening Mar 16, 2010 $9.9987% (93%/82%)100,000 .. 200,0000.79%00:06 (00:02)
9 The Lonesome Fog Mar 24, 2016 $4.99N/A (N/A)0 .. 20,0000%00:00 (00:00)
10 Brighter Day Jul 17, 2015 $2.99N/A (N/A)0 .. 20,0000%00:00 (00:00)
11 Thread Studio Sep 29, 2016 FreeN/A (N/A)0 .. 20,0000%00:00 (00:00)
12 Pan-Pan Aug 25, 2016 $12.9976% (90%)0 .. 20,0000%00:00 (00:00)
13 Cubixx HD Jan 28, 2016 $2.69N/A (N/A)0 .. 20,0000%00:00 (00:00)
14 Viridi Aug 19, 2015 Free76% (90%/46%)500,000 .. 1,000,0003.15%03:53 (00:10)
15 Party Jousting Mar 1, 2016 Free76% (90%)100,000 .. 200,0000%00:00 (00:00)
16 You Have 10 Seconds Jul 14, 2016 Free76% (90%)200,000 .. 500,0000.33%00:13 (00:04)
17 Black Ink Feb 8, 2016 $59.9973% (89%)20,000 .. 50,0000%00:00 (00:00)
18 Pilot Brothers 2 Dec 31, 2014 $4.99N/A (N/A)0 .. 20,0000%00:00 (00:00)
19 Nimble Writer Apr 21, 2015 $9.9967% (87%)0 .. 20,00010%00:22 (00:07)
20 Jacob Jones and the Bigfoot Mystery : Episode 2 Sep 23, 2014 $3.99N/A (N/A)0 .. 20,0000%00:00 (00:00)
21 SOLITUNE Apr 25, 2017 $1.9959% (84%)0 .. 20,0004.17%02:33 (00:51)
22 Prominence Nov 6, 2015 $19.9954% (82%)0 .. 20,0000%00:00 (00:00)
23 Call of Cthulhu: Shadow of the Comet Jan 1, 1993 $5.99N/A (N/A)0 .. 20,0000%00:00 (00:00)
24 The Journey Back Aug 12, 2015 $1.99N/A (N/A)0 .. 20,0000%00:00 (00:00)
25 The Storm Guard: Darkness is Coming Aug 25, 2016 $19.9952% (81%)0 .. 20,0000%00:00 (00:00)
26 Fences Mar 29, 2017 $9.9952% (81%)20,000 .. 50,00010.11%00:01 (00:01)
27 Foxhole Jul 27, 2017 $19.9948% (79%)200,000 .. 500,0006.36%06:30 (05:56)
28 SVRVIVE: The Deus Helix Nov 17, 2016 $18.9948% (79%)0 .. 20,0000%00:00 (00:00)
29 Ambre - a heartbreaking kinetic novel Jun 9, 2017 Free42% (76%)20,000 .. 50,0000%00:00 (00:00)
30 Just Ignore Them Apr 28, 2017 $3.9940% (75%)0 .. 20,0004.17%00:54 (00:18)
31 Call of Cthulhu: Prisoner of Ice Jan 1, 1995 $5.99N/A (N/A)0 .. 20,0000%00:00 (00:00)
32 IKEA VR Experience Apr 5, 2016 Free38% (74%)200,000 .. 500,0000%00:00 (00:00)
33 Mausoleum of the Medusa Oct 27, 2016 Free36% (73%)0 .. 20,0000%00:00 (00:00)
34 The Revenge of Johnny Bonasera: Episode 1 Nov 1, 2016 $3.99N/A (N/A)0 .. 20,0000%00:00 (00:00)
35 Wild Warfare Jul 15, 2014 N/A31% (70%)200,000 .. 500,0000%00:00 (00:00)
36 Tony Tough and the Night of Roasted Moths Dec 1, 1997 $9.99N/A (N/A/68%)0 .. 20,0000%00:00 (00:00)
37 The Morgue Fissure Between Worlds Mar 30, 2017 $0.99N/A (N/A)0 .. 20,0000%00:00 (00:00)
38 Clown2Beat Oct 26, 2016 FreeN/A (N/A)0 .. 20,0000%00:00 (00:00)
39 Lands of Hope Redemption Jun 8, 2014 $1.99N/A (N/A)0 .. 20,0000%00:00 (00:00)
40 The Big Secret of a Small Town Mar 2, 2015 $6.99N/A (N/A)0 .. 20,0000%00:00 (00:00)
41 Elminage Gothic Sep 18, 2014 $9.9920% (62%)0 .. 20,0000%00:00 (00:00)
42 CGWallpapers Nov 30, 2016 $4.99N/A (N/A)0 .. 20,0006.25%00:12 (00:04)
43 Mystery Mine May 18, 2017 $3.9915% (57%)100,000 .. 200,0000.79%03:35 (03:35)
44 Pilot Brothers 3: Back Side of the Earth Jan 22, 2015 $4.99N/A (N/A)0 .. 20,0000%00:00 (00:00)
45 Unhappy Ever After Jan 20, 2017 $0.99N/A (N/A)0 .. 20,0000%00:00 (00:00)
46 Torn Tales Jan 17, 2017 $10.99N/A (N/A)20,000 .. 50,0001.22%05:43 (01:54)
47 Escape The Lost Kingdom: The Forgotten Pharaoh Aug 6, 2010 $4.9914% (56%)20,000 .. 50,0000%00:00 (00:00)
48 Multiplayer FPS Demo Jul 6, 2017 Free12% (54%)50,000 .. 100,0000%00:00 (00:00)
49 Playing History: Vikings Jul 1, 2015 $2.99N/A (N/A)20,000 .. 50,0000%00:00 (00:00)
50 Fractasia Nov 17, 2016 FreeN/A (N/A)0 .. 20,0000%00:00 (00:00)
51 D.W.A.R.F.S. Oct 6, 2008 $5.99N/A (N/A)0 .. 20,0000%00:00 (00:00)
52 After Life - Story of a Father Nov 25, 2016 $5.99N/A (N/A)0 .. 20,0000%00:00 (00:00)
53 Astro Lords: Oort Cloud Jan 15, 2016 FreeN/A (N/A)50,000 .. 100,0000%00:00 (00:00)
54 De-Void Sep 2, 2016 $7.99N/A (N/A)20,000 .. 50,0000%00:00 (00:00)
55 Bayou Island - Point and Click Adventure Feb 28, 2017 $1.99N/A (N/A)20,000 .. 50,0000%00:00 (00:00)
56 Maze Sounds Oct 3, 2016 $4.99N/A (N/A)0 .. 20,0000%00:00 (00:00)
57 Vault Cracker May 15, 2014 $4.99N/A (N/A)0 .. 20,0000%00:00 (00:00)
58 Ragnarok Journey Jun 12, 2017 Free4% (37%)50,000 .. 100,0000%00:00 (00:00)
59 BattleSpace Sep 27, 2013 N/A3% (33%)100,000 .. 200,0000%00:00 (00:00)
60 iTownGamePlay UNIVERSE Jul 19, 2017 FreeN/A (N/A)20,000 .. 50,0006.25%334:41 (223:07)
61 VR Gallery Oct 5, 2018 $2.99N/A (N/A)0 .. 20,0000%00:00 (00:00)

Tags over time:

Access restricted.

This feature is only available to users with special access rights. Sorry.

If you want to proceed, you need to register or log in first and then back Steam Spy on Patreon. Look for Indie or Pro pledge.

Don't forget to use the same email as on Steam Spy!

Owners of this game also own:

Access restricted.

This feature is only available to users with special access rights. Sorry.

If you want to proceed, you need to register or log in first and then back Steam Spy on Patreon. Look for Indie or Pro pledge.

Don't forget to use the same email as on Steam Spy!

Playtime distribution:

Access restricted.

This feature is only available to users with special access rights. Sorry.

If you want to proceed, you need to register or log in first and then back Steam Spy on Patreon. Look for Indie or Pro pledge.

Don't forget to use the same email as on Steam Spy!

Playtime (2 weeks):

Access restricted.

This feature is only available to users with special access rights. Sorry.

If you want to proceed, you need to register or log in first and then back Steam Spy on Patreon. Look for Indie or Pro pledge.

Don't forget to use the same email as on Steam Spy!

User reviews:

Login required.

Please register or log in to see this information.